Time,TemperatureF,DewpointF,PressureIn,WindDirection,WindDirectionDegrees,WindSpeedMPH,WindSpeedGustMPH,Humidity,HourlyPrecipIn,Conditions,Clouds,dailyrainin,SolarRadiationWatts/m^2,SoftwareType,DateUTC
2013-05-29 00:02:00,72.0,71.0,-100.00,East,83,5.0,-999.0,95,0.00,,,-99.99,0.000000,,2013-05-29 04:02:00,
2013-05-29 00:13:00,73.0,71.0,-100.00,ENE,78,5.0,-999.0,95,0.00,,,-99.99,0.000000,,2013-05-29 04:13:00,
2013-05-29 00:23:00,73.0,71.0,-100.00,ENE,78,5.0,-999.0,95,0.00,,,-99.99,0.000000,,2013-05-29 04:23:00,
2013-05-29 00:33:00,73.0,71.0,-100.00,East,82,5.0,-999.0,95,0.00,,,-99.99,0.000000,,2013-05-29 04:33:00,
2013-05-29 00:42:00,73.0,72.0,-100.00,East,82,5.0,-999.0,95,0.00,,,-99.99,0.000000,,2013-05-29 04:42:00,
2013-05-29 00:53:00,73.0,72.0,-100.00,East,82,5.0,-999.0,95,0.00,,,-99.99,0.000000,,2013-05-29 04:53:00,
2013-05-29 01:02:00,73.0,72.0,-100.00,East,85,6.0,-999.0,94,0.00,,,-99.99,0.000000,,2013-05-29 05:02:00,
2013-05-29 01:12:00,74.0,72.0,-100.00,East,88,7.0,-999.0,95,0.00,,,-99.99,0.000000,,2013-05-29 05:12:00,
2013-05-29 01:22:00,74.0,72.0,-100.00,East,88,7.0,-999.0,95,0.00,,,-99.99,0.000000,,2013-05-29 05:22:00,
2013-05-29 01:32:00,74.0,72.0,-100.00,ESE,102,5.0,-999.0,94,0.00,,,-99.99,0.000000,,2013-05-29 05:32:00,
2013-05-29 01:42:00,74.0,72.0,-100.00,East,87,6.0,-999.0,94,0.00,,,-99.99,0.000000,,2013-05-29 05:42:00,
2013-05-29 01:52:00,74.0,72.0,-100.00,East,87,6.0,-999.0,94,0.00,,,-99.99,0.000000,,2013-05-29 05:52:00,
2013-05-29 02:01:00,73.0,72.0,-100.00,ENE,75,5.0,-999.0,94,0.00,,,-99.99,0.000000,,2013-05-29 06:01:00,
2013-05-29 02:12:00,73.0,71.0,-100.00,East,85,4.0,-999.0,94,0.00,,,-99.99,0.000000,,2013-05-29 06:12:00,
2013-05-29 02:21:00,73.0,71.0,-100.00,East,85,4.0,-999.0,94,0.00,,,-99.99,0.000000,,2013-05-29 06:21:00,
2013-05-29 02:32:00,73.0,72.0,-100.00,ENE,76,4.0,-999.0,94,0.00,,,-99.99,0.000000,,2013-05-29 06:32:00,
2013-05-29 02:42:00,73.0,71.0,-100.00,ENE,75,4.0,-999.0,95,0.00,,,-99.99,0.000000,,2013-05-29 06:42:00,
2013-05-29 02:52:00,73.0,71.0,-100.00,ENE,75,4.0,-999.0,95,0.00,,,-99.99,0.000000,,2013-05-29 06:52:00,
2013-05-29 03:01:00,73.0,72.0,-100.00,East,81,5.0,-999.0,96,0.00,,,-99.99,0.000000,,2013-05-29 07:01:00,
2013-05-29 03:12:00,73.0,72.0,-100.00,East,88,4.0,-999.0,95,0.00,,,-99.99,0.000000,,2013-05-29 07:12:00,
2013-05-29 03:21:00,73.0,72.0,-100.00,East,88,4.0,-999.0,95,0.00,,,-99.99,0.000000,,2013-05-29 07:21:00,
2013-05-29 03:34:00,73.0,72.0,-100.00,East,81,4.0,-999.0,95,0.00,,,-99.99,0.000000,,2013-05-29 07:34:00,
2013-05-29 03:42:00,73.0,72.0,-100.00,ENE,76,4.0,-999.0,96,0.00,,,-99.99,0.000000,,2013-05-29 07:42:00,
2013-05-29 03:52:00,73.0,72.0,-100.00,ENE,76,4.0,-999.0,96,0.00,,,-99.99,0.000000,,2013-05-29 07:52:00,
2013-05-29 04:02:00,74.0,72.0,-100.00,East,89,6.0,-999.0,96,0.00,,,-99.99,0.000000,,2013-05-29 08:02:00,
2013-05-29 04:11:00,73.0,72.0,-100.00,SE,127,9.0,-999.0,94,0.03,,,-99.99,0.000000,,2013-05-29 08:11:00,
2013-05-29 04:22:00,73.0,72.0,-100.00,SE,127,9.0,-999.0,94,0.03,,,-99.99,0.000000,,2013-05-29 08:22:00,
2013-05-29 04:32:00,72.0,70.0,-100.00,ESE,120,5.0,-999.0,95,0.03,,,-99.99,0.000000,,2013-05-29 08:32:00,
2013-05-29 04:42:00,72.0,71.0,-100.00,East,86,4.0,-999.0,95,0.00,,,-99.99,0.000000,,2013-05-29 08:42:00,
2013-05-29 04:52:00,72.0,71.0,-100.00,East,86,4.0,-999.0,95,0.00,,,-99.99,0.000000,,2013-05-29 08:52:00,
2013-05-29 05:01:00,72.0,71.0,-100.00,East,89,5.0,-999.0,95,0.00,,,-99.99,0.000000,,2013-05-29 09:01:00,
2013-05-29 05:11:00,72.0,70.0,-100.00,SE,125,4.0,-999.0,94,0.00,,,-99.99,0.000000,,2013-05-29 09:11:00,
2013-05-29 05:21:00,72.0,70.0,-100.00,SE,125,4.0,-999.0,94,0.00,,,-99.99,0.000000,,2013-05-29 09:21:00,
2013-05-29 05:33:00,72.0,70.0,-100.00,East,92,2.0,-999.0,95,0.00,,,-99.99,0.000000,,2013-05-29 09:33:00,
2013-05-29 05:42:00,72.0,70.0,-100.00,East,85,1.0,-999.0,96,0.00,,,-99.99,0.000000,,2013-05-29 09:42:00,
2013-05-29 05:52:00,72.0,70.0,-100.00,East,85,1.0,-999.0,96,0.00,,,-99.99,0.000000,,2013-05-29 09:52:00,
2013-05-29 06:03:00,71.0,70.0,-100.00,East,83,2.0,-999.0,96,0.00,,,-99.99,0.000000,,2013-05-29 10:03:00,
2013-05-29 06:12:00,72.0,71.0,-100.00,ESE,103,1.0,-999.0,97,0.00,,,-99.99,0.000000,,2013-05-29 10:12:00,
2013-05-29 06:22:00,72.0,71.0,-100.00,ESE,103,1.0,-999.0,97,0.00,,,-99.99,0.000000,,2013-05-29 10:22:00,
2013-05-29 06:32:00,71.0,71.0,-100.00,NE,37,1.0,-999.0,97,0.00,,,-99.99,0.100000,,2013-05-29 10:32:00,
2013-05-29 06:42:00,71.0,71.0,-100.00,North,359,3.0,-999.0,97,0.00,,,-99.99,0.900000,,2013-05-29 10:42:00,
2013-05-29 06:53:00,71.0,71.0,-100.00,North,359,3.0,-999.0,97,0.00,,,-99.99,0.900000,,2013-05-29 10:53:00,
2013-05-29 07:02:00,71.0,71.0,-100.00,SW,226,2.0,-999.0,98,0.00,,,-99.99,3.000000,,2013-05-29 11:02:00,
2013-05-29 07:12:00,72.0,71.0,-100.00,NE,35,1.0,-999.0,98,0.00,,,-99.99,10.000000,,2013-05-29 11:12:00,
2013-05-29 07:22:00,72.0,71.0,-100.00,NE,35,1.0,-999.0,98,0.00,,,-99.99,10.000000,,2013-05-29 11:22:00,
2013-05-29 07:32:00,72.0,72.0,-100.00,ENE,58,2.0,-999.0,98,0.00,,,-99.99,37.500000,,2013-05-29 11:32:00,
2013-05-29 07:42:00,74.0,73.0,-100.00,ESE,105,3.0,-999.0,98,0.00,,,-99.99,96.800003,,2013-05-29 11:42:00,
2013-05-29 07:52:00,74.0,73.0,-100.00,ESE,105,3.0,-999.0,98,0.00,,,-99.99,96.800003,,2013-05-29 11:52:00,
2013-05-29 08:01:00,76.0,75.0,-100.00,ESE,109,7.0,-999.0,95,0.00,,,-99.99,207.699997,,2013-05-29 12:01:00,
2013-05-29 08:11:00,77.0,75.0,-100.00,ESE,113,7.0,-999.0,92,0.00,,,-99.99,214.100006,,2013-05-29 12:11:00,
2013-05-29 08:22:00,77.0,75.0,-100.00,ESE,113,7.0,-999.0,92,0.00,,,-99.99,214.100006,,2013-05-29 12:22:00,
2013-05-29 08:32:00,78.0,75.0,-100.00,ESE,106,8.0,-999.0,89,0.00,,,-99.99,256.799988,,2013-05-29 12:32:00,
2013-05-29 08:42:00,78.0,74.0,-100.00,East,99,9.0,-999.0,87,0.00,,,-99.99,138.699997,,2013-05-29 12:42:00,
2013-05-29 08:52:00,78.0,74.0,-100.00,East,99,9.0,-999.0,87,0.00,,,-99.99,138.699997,,2013-05-29 12:52:00,
2013-05-29 09:02:00,76.0,72.0,-100.00,East,100,12.0,-999.0,88,0.03,,,-99.99,90.599998,,2013-05-29 13:02:00,
2013-05-29 09:11:00,75.0,73.0,-100.00,ESE,115,7.0,-999.0,92,0.03,,,-99.99,228.800003,,2013-05-29 13:11:00,
2013-05-29 09:21:00,75.0,73.0,-100.00,ESE,115,7.0,-999.0,92,0.03,,,-99.99,228.800003,,2013-05-29 13:21:00,
2013-05-29 09:32:00,77.0,75.0,-100.00,ESE,107,7.0,-999.0,92,0.00,,,-99.99,298.600006,,2013-05-29 13:32:00,
2013-05-29 09:42:00,78.0,75.0,-100.00,ESE,108,8.0,-999.0,90,0.00,,,-99.99,197.399994,,2013-05-29 13:42:00,
2013-05-29 09:53:00,78.0,75.0,-100.00,ESE,108,8.0,-999.0,90,0.00,,,-99.99,197.399994,,2013-05-29 13:53:00,
2013-05-29 10:02:00,76.0,73.0,-100.00,SSE,153,5.0,-999.0,90,0.03,,,-99.99,49.700001,,2013-05-29 14:02:00,
2013-05-29 10:11:00,75.0,73.0,-100.00,SE,131,2.0,-999.0,93,0.00,,,-99.99,99.800003,,2013-05-29 14:11:00,
2013-05-29 10:21:00,75.0,73.0,-100.00,SE,131,2.0,-999.0,93,0.00,,,-99.99,99.800003,,2013-05-29 14:21:00,
2013-05-29 10:32:00,75.0,73.0,-100.00,NNW,342,2.0,-999.0,94,0.00,,,-99.99,129.000000,,2013-05-29 14:32:00,
2013-05-29 10:42:00,75.0,73.0,-100.00,SW,233,3.0,-999.0,95,0.03,,,-99.99,77.599998,,2013-05-29 14:42:00,
2013-05-29 10:52:00,75.0,73.0,-100.00,SW,233,3.0,-999.0,95,0.03,,,-99.99,77.599998,,2013-05-29 14:52:00,
2013-05-29 11:01:00,75.0,73.0,-100.00,South,175,8.0,-999.0,95,0.00,,,-99.99,161.899994,,2013-05-29 15:01:00,
2013-05-29 11:11:00,75.0,73.0,-100.00,SSE,157,10.0,-999.0,93,0.66,,,-99.99,115.800003,,2013-05-29 15:11:00,
2013-05-29 11:21:00,75.0,73.0,-100.00,SSE,157,10.0,-999.0,93,0.66,,,-99.99,115.800003,,2013-05-29 15:21:00,
2013-05-29 11:33:00,73.0,72.0,-100.00,SE,137,11.0,-999.0,95,0.08,,,-99.99,122.300003,,2013-05-29 15:33:00,
2013-05-29 11:42:00,74.0,73.0,-100.00,SE,133,6.0,-999.0,96,0.00,,,-99.99,190.000000,,2013-05-29 15:42:00,
2013-05-29 11:53:00,74.0,73.0,-100.00,SE,133,6.0,-999.0,96,0.00,,,-99.99,190.000000,,2013-05-29 15:53:00,
2013-05-29 12:03:00,75.0,74.0,-100.00,East,94,5.0,-999.0,95,0.03,,,-99.99,235.800003,,2013-05-29 16:03:00,
2013-05-29 12:12:00,76.0,74.0,-100.00,East,98,4.0,-999.0,94,0.00,,,-99.99,306.600006,,2013-05-29 16:12:00,
2013-05-29 12:22:00,76.0,74.0,-100.00,East,98,4.0,-999.0,94,0.00,,,-99.99,306.600006,,2013-05-29 16:22:00,
2013-05-29 12:32:00,77.0,75.0,-100.00,ESE,102,4.0,-999.0,93,0.00,,,-99.99,381.799988,,2013-05-29 16:32:00,
2013-05-29 12:42:00,78.0,75.0,-100.00,ESE,107,7.0,-999.0,89,0.00,,,-99.99,443.899994,,2013-05-29 16:42:00,
2013-05-29 12:52:00,78.0,75.0,-100.00,ESE,107,7.0,-999.0,89,0.00,,,-99.99,443.899994,,2013-05-29 16:52:00,
2013-05-29 13:02:00,79.0,75.0,-100.00,SE,138,5.0,-999.0,87,0.00,,,-99.99,490.899994,,2013-05-29 17:02:00,
2013-05-29 13:12:00,80.0,75.0,-100.00,ESE,114,4.0,-999.0,84,0.00,,,-99.99,335.299988,,2013-05-29 17:12:00,
2013-05-29 13:22:00,80.0,75.0,-100.00,ESE,114,4.0,-999.0,84,0.00,,,-99.99,335.299988,,2013-05-29 17:22:00,
2013-05-29 13:32:00,80.0,74.0,-100.00,ESE,102,10.0,-999.0,80,0.00,,,-99.99,408.299988,,2013-05-29 17:32:00,
2013-05-29 13:42:00,81.0,74.0,-100.00,ESE,106,9.0,-999.0,80,0.00,,,-99.99,481.000000,,2013-05-29 17:42:00,
2013-05-29 13:52:00,81.0,74.0,-100.00,ESE,106,9.0,-999.0,80,0.00,,,-99.99,481.000000,,2013-05-29 17:52:00,
2013-05-29 14:01:00,80.0,74.0,-100.00,ESE,109,9.0,-999.0,81,0.03,,,-99.99,307.200012,,2013-05-29 18:01:00,
2013-05-29 14:13:00,78.0,73.0,-100.00,ESE,122,9.0,-999.0,86,0.00,,,-99.99,343.700012,,2013-05-29 18:13:00,
2013-05-29 14:22:00,78.0,73.0,-100.00,ESE,122,9.0,-999.0,86,0.00,,,-99.99,343.700012,,2013-05-29 18:22:00,
2013-05-29 14:32:00,79.0,74.0,-100.00,ESE,119,8.0,-999.0,85,0.00,,,-99.99,513.799988,,2013-05-29 18:32:00,
2013-05-29 14:42:00,81.0,73.0,-100.00,ESE,112,12.0,-999.0,78,0.00,,,-99.99,527.500000,,2013-05-29 18:42:00,
2013-05-29 14:52:00,81.0,73.0,-100.00,ESE,112,12.0,-999.0,78,0.00,,,-99.99,527.500000,,2013-05-29 18:52:00,
2013-05-29 15:02:00,81.0,73.0,-100.00,ESE,108,13.0,-999.0,75,0.00,,,-99.99,577.599976,,2013-05-29 19:02:00,
2013-05-29 15:11:00,81.0,73.0,-100.00,ESE,106,13.0,-999.0,76,0.00,,,-99.99,439.899994,,2013-05-29 19:11:00,
2013-05-29 15:21:00,81.0,73.0,-100.00,ESE,106,13.0,-999.0,76,0.00,,,-99.99,439.899994,,2013-05-29 19:21:00,
2013-05-29 15:32:00,81.0,73.0,-100.00,ESE,105,11.0,-999.0,77,0.00,,,-99.99,357.100006,,2013-05-29 19:32:00,
2013-05-29 15:44:00,81.0,73.0,-100.00,ESE,105,12.0,-999.0,76,0.00,,,-99.99,382.600006,,2013-05-29 19:44:00,
2013-05-29 15:53:00,81.0,73.0,-100.00,ESE,105,12.0,-999.0,76,0.00,,,-99.99,382.600006,,2013-05-29 19:53:00,
2013-05-29 16:03:00,78.0,72.0,-100.00,SE,132,11.0,-999.0,82,0.03,,,-99.99,288.100006,,2013-05-29 20:03:00,
2013-05-29 16:11:00,78.0,70.0,-100.00,SE,138,10.0,-999.0,78,0.00,,,-99.99,668.599976,,2013-05-29 20:11:00,
2013-05-29 16:23:00,78.0,70.0,-100.00,SE,138,10.0,-999.0,78,0.00,,,-99.99,668.599976,,2013-05-29 20:23:00,
2013-05-29 16:33:00,79.0,72.0,-100.00,ESE,113,9.0,-999.0,77,0.00,,,-99.99,571.400024,,2013-05-29 20:33:00,
2013-05-29 16:42:00,80.0,73.0,-100.00,East,92,10.0,-999.0,79,0.00,,,-99.99,573.900024,,2013-05-29 20:42:00,
2013-05-29 16:53:00,80.0,73.0,-100.00,East,92,10.0,-999.0,79,0.00,,,-99.99,573.900024,,2013-05-29 20:53:00,
2013-05-29 17:02:00,81.0,74.0,-100.00,East,96,12.0,-999.0,79,0.00,,,-99.99,760.000000,,2013-05-29 21:02:00,
2013-05-29 17:12:00,82.0,74.0,-100.00,East,98,11.0,-999.0,77,0.00,,,-99.99,608.700012,,2013-05-29 21:12:00,
2013-05-29 17:22:00,82.0,74.0,-100.00,East,98,11.0,-999.0,77,0.00,,,-99.99,608.700012,,2013-05-29 21:22:00,
2013-05-29 17:33:00,82.0,74.0,-100.00,East,98,11.0,-999.0,76,0.00,,,-99.99,458.200012,,2013-05-29 21:33:00,
2013-05-29 17:43:00,82.0,73.0,-100.00,ESE,107,12.0,-999.0,73,0.00,,,-99.99,607.900024,,2013-05-29 21:43:00,
2013-05-29 17:53:00,82.0,73.0,-100.00,ESE,107,12.0,-999.0,73,0.00,,,-99.99,607.900024,,2013-05-29 21:53:00,
2013-05-29 18:03:00,81.0,73.0,-100.00,East,90,11.0,-999.0,78,0.00,,,-99.99,272.200012,,2013-05-29 22:03:00,
2013-05-29 18:12:00,81.0,73.0,-100.00,East,93,12.0,-999.0,77,0.00,,,-99.99,389.000000,,2013-05-29 22:12:00,
2013-05-29 18:23:00,81.0,73.0,-100.00,East,93,12.0,-999.0,77,0.00,,,-99.99,389.000000,,2013-05-29 22:23:00,
2013-05-29 18:33:00,81.0,73.0,-100.00,East,96,13.0,-999.0,77,0.00,,,-99.99,326.399994,,2013-05-29 22:33:00,
2013-05-29 18:42:00,81.0,73.0,-100.00,East,101,13.0,-999.0,75,0.00,,,-99.99,348.600006,,2013-05-29 22:42:00,
2013-05-29 18:53:00,81.0,73.0,-100.00,East,101,13.0,-999.0,75,0.00,,,-99.99,348.600006,,2013-05-29 22:53:00,
2013-05-29 19:02:00,80.0,72.0,-100.00,ESE,104,12.0,-999.0,77,0.00,,,-99.99,148.399994,,2013-05-29 23:02:00,
2013-05-29 19:12:00,79.0,73.0,-100.00,East,100,12.0,-999.0,80,0.00,,,-99.99,94.000000,,2013-05-29 23:12:00,
2013-05-29 19:22:00,79.0,73.0,-100.00,East,100,12.0,-999.0,80,0.00,,,-99.99,94.000000,,2013-05-29 23:22:00,
2013-05-29 19:33:00,79.0,73.0,-100.00,East,97,12.0,-999.0,81,0.00,,,-99.99,148.000000,,2013-05-29 23:33:00,
2013-05-29 19:42:00,79.0,73.0,-100.00,East,95,13.0,-999.0,80,0.00,,,-99.99,111.400002,,2013-05-29 23:42:00,
2013-05-29 19:53:00,79.0,73.0,-100.00,East,95,13.0,-999.0,80,0.00,,,-99.99,111.400002,,2013-05-29 23:53:00,
2013-05-29 20:01:00,79.0,73.0,-100.00,East,95,11.0,-999.0,81,0.00,,,-99.99,54.099998,,2013-05-30 00:01:00,
2013-05-29 20:12:00,78.0,72.0,-100.00,East,99,10.0,-999.0,81,0.00,,,-99.99,21.500000,,2013-05-30 00:12:00,
2013-05-29 20:21:00,78.0,72.0,-100.00,East,99,10.0,-999.0,81,0.00,,,-99.99,21.500000,,2013-05-30 00:21:00,
2013-05-29 20:32:00,78.0,73.0,-100.00,East,98,10.0,-999.0,83,0.00,,,-99.99,9.100000,,2013-05-30 00:32:00,
2013-05-29 20:42:00,78.0,73.0,-100.00,East,97,9.0,-999.0,85,0.00,,,-99.99,0.900000,,2013-05-30 00:42:00,
2013-05-29 20:52:00,78.0,73.0,-100.00,East,97,9.0,-999.0,85,0.00,,,-99.99,0.900000,,2013-05-30 00:52:00,
2013-05-29 21:01:00,77.0,73.0,-100.00,East,94,9.0,-999.0,86,0.00,,,-99.99,0.000000,,2013-05-30 01:01:00,
2013-05-29 21:11:00,77.0,73.0,-100.00,East,96,8.0,-999.0,86,0.00,,,-99.99,0.000000,,2013-05-30 01:11:00,
2013-05-29 21:21:00,77.0,73.0,-100.00,East,96,8.0,-999.0,86,0.00,,,-99.99,0.000000,,2013-05-30 01:21:00,
2013-05-29 21:32:00,77.0,73.0,-100.00,East,98,8.0,-999.0,87,0.00,,,-99.99,0.000000,,2013-05-30 01:32:00,
2013-05-29 21:42:00,76.0,72.0,-100.00,ESE,102,7.0,-999.0,87,0.00,,,-99.99,0.000000,,2013-05-30 01:42:00,
2013-05-29 21:52:00,76.0,72.0,-100.00,ESE,102,7.0,-999.0,87,0.00,,,-99.99,0.000000,,2013-05-30 01:52:00,
2013-05-29 22:01:00,76.0,72.0,-100.00,East,100,8.0,-999.0,87,0.00,,,-99.99,0.000000,,2013-05-30 02:01:00,
2013-05-29 22:11:00,76.0,73.0,-100.00,East,101,8.0,-999.0,87,0.00,,,-99.99,0.000000,,2013-05-30 02:11:00,
2013-05-29 22:21:00,76.0,73.0,-100.00,East,101,8.0,-999.0,87,0.00,,,-99.99,0.000000,,2013-05-30 02:21:00,
2013-05-29 22:32:00,76.0,73.0,-100.00,East,97,8.0,-999.0,88,0.00,,,-99.99,0.000000,,2013-05-30 02:32:00,
2013-05-29 22:42:00,76.0,73.0,-100.00,East,97,8.0,-999.0,88,0.00,,,-99.99,0.000000,,2013-05-30 02:42:00,
2013-05-29 22:52:00,76.0,73.0,-100.00,East,97,8.0,-999.0,88,0.00,,,-99.99,0.000000,,2013-05-30 02:52:00,
2013-05-29 23:02:00,76.0,73.0,-100.00,East,95,8.0,-999.0,88,0.00,,,-99.99,0.000000,,2013-05-30 03:02:00,
2013-05-29 23:11:00,76.0,73.0,-100.00,East,99,8.0,-999.0,88,0.00,,,-99.99,0.000000,,2013-05-30 03:11:00,
2013-05-29 23:21:00,76.0,73.0,-100.00,East,99,8.0,-999.0,88,0.00,,,-99.99,0.000000,,2013-05-30 03:21:00,
2013-05-29 23:33:00,77.0,73.0,-100.00,East,101,9.0,-999.0,88,0.00,,,-99.99,0.000000,,2013-05-30 03:33:00,
2013-05-29 23:43:00,77.0,73.0,-100.00,ESE,102,9.0,-999.0,88,0.00,,,-99.99,0.000000,,2013-05-30 03:43:00,
2013-05-29 23:53:00,77.0,73.0,-100.00,ESE,102,9.0,-999.0,88,0.00,,,-99.99,0.000000,,2013-05-30 03:53:00,